Regional Weather Roundup
Issued by NWS

Home | Current Version | Previous Version | Graphics & Text | Print | Product List | Glossary On
Versions: 1 2 3 4 5 6 7 8 9 10 11 12 13 14 15 16 17 18 19 20 21 22 23 24 25 26 27 28
000
ASUS45 KSLC 211410
RWRUT

UTAH REGIONAL WEATHER ROUNDUP
NATIONAL WEATHER SERVICE SALT LAKE CITY UT
800 AM MDT THU SEP 21 2017

UTZ001>011-023>025-211500-

NORTHERN UTAH

CITY           SKY/WX    TMP DP  RH WIND       PRES   REMARKS
BRIGHAM CITY   CLOUDY    49  40  72 N6        29.77R
HILL AFB       CLOUDY    48  43  81 NW8       29.76R
LOGAN          CLOUDY    48  43  82 CALM      29.76F
OGDEN          CLOUDY    50  42  74 N9        29.75R
SALT LAKE CITY MOCLDY    52  44  74 N6        29.75R
TOOELE VALLEY  CLOUDY    52  43  71 NW6       29.78R
WENDOVER       LGT RAIN  47  41  80 NW14      29.78
HEBER CITY     PTCLDY    59  32  36 S5        29.70R
WEST JORDAN    PTCLDY    47  46  95 NW3       29.77R

$$

UTZ011>015-024>027-211500-

CENTRAL/NORTHEAST UTAH

CITY           SKY/WX    TMP DP  RH WIND       PRES   REMARKS
PROVO AIRPORT  PTCLDY    52  44  74 NW15      29.73R
MOAB/CANYONLAN CLEAR     70  36  28 S16       29.78R
DELTA          CLEAR     46  37  71 NW14      29.72S
PRICE          CLEAR     57  38  48 SE7       29.82R
ROOSEVELT      CLEAR     52  37  58 CALM      29.78R
VERNAL         CLEAR     58  37  45 SW6       29.76R

$$

UTZ013>016-019>022-027-211500-

SOUTHERN UTAH

CITY           SKY/WX    TMP DP  RH WIND       PRES   REMARKS
BRYCE CANYON   CLEAR     50  37  61 SE17      29.97R
CEDAR CITY     CLEAR     61  36  39 S30G41    29.76R
MILFORD        CLEAR     60  39  45 S22       29.72R
ST GEORGE      MOSUNNY   71  39  31 SE12      29.72R
HANKSVILLE     CLEAR     68  36  30 S16       29.79S
BLANDING         N/A     56  35  45 SE5       30.03S

$$

REGIONAL REPORTS     COLORADO/ARIZONA

CITY           SKY/WX    TMP DP  RH WIND       PRES   REMARKS
CRAIG, CO      SUNNY     64  26  23 SW12G22   29.84R
GRAND JUNCTION SUNNY     68  37  32 SE18      29.83R
RIFLE, CO      SUNNY     57  31  37 E5        29.86R
MONTROSE, CO   SUNNY     65  31  28 SE15      29.95S
CORTEZ, CO     SUNNY     47  35  63 N3        30.01S
PAGE, AZ       CLEAR     69  39  33 S14G23    29.81R
GRAND CANYON   CLEAR     52  42  69 SW12      30.00R
KINGMAN, AZ    CLEAR     64  38  38 SE8       29.82S
FLAGSTAFF, AZ  CLEAR     50  32  50 SW12      30.05S

$$

REGIONAL REPORTS    NEVADA/IDAHO/WYOMING

CITY           SKY/WX    TMP DP  RH WIND       PRES   REMARKS
LAS VEGAS, NV  CLEAR     72  43  35 SE6       29.68R
ELY, NY        CLOUDY    45  36  70 N9        29.80R
ELKO, NV       LGT RAIN  39  35  86 CALM      29.83R
POCATELLO, ID  LGT RAIN  40  38  93 S8        29.81R WCI  34
BURLEY, ID     LGT RAIN  41  39  93 SW9       29.80R
FORT BRIDGER,    N/A     42  41  97 NE5       29.80S
EVANSTON, WY   CLOUDY    43  37  79 CALM      29.77S
ROCK SPRINGS,  CLEAR     53  33  46 VRB5      29.78R
KEMMERER, WY     N/A     36  36 100 NW7       29.79S WCI  30

$$




USA.gov is the U.S. government's official web portal to all federal, state and local government web resources and services.